N789DL PADK-PADU

Flight info

Callsign N789DL
Flight time 1h 20m
Altitude 33000
Route SIYNY G8 DUT
Aircraft STAR/L-SDFGRWY/S

Departure

Time 2026-04-13 23:51
Airport Adak Airport (PADK)

Arrival

Time 2026-04-14 01:11
Airport Tom Madsen (Dutch Harbor) Airport (PADU)
Time Latitude Longitude Altitude Speed Heading
2026-04-13 23:38 51.87622 -176.64377 11 ft 0 kts 254°
2026-04-13 23:45 51.87616 -176.64407 11 ft 9 kts 252°
2026-04-13 23:45 51.87602 -176.64495 11 ft 6 kts 275°
2026-04-13 23:45 51.87656 -176.64518 7 ft 17 kts 18°
2026-04-13 23:45 51.87792 -176.64447 12 ft 20 kts 19°
2026-04-13 23:46 51.87913 -176.64388 12 ft 16 kts 18°
2026-04-13 23:46 51.88017 -176.64337 11 ft 15 kts
2026-04-13 23:46 51.88144 -176.64332 9 ft 20 kts
2026-04-13 23:46 51.88261 -176.64331 12 ft 13 kts
2026-04-13 23:47 51.88330 -176.64310 11 ft 15 kts 35°
2026-04-13 23:47 51.88413 -176.64093 13 ft 29 kts 61°
2026-04-13 23:47 51.88531 -176.63753 15 ft 39 kts 60°
2026-04-13 23:47 51.88642 -176.63437 11 ft 28 kts 60°
2026-04-13 23:48 51.88734 -176.63169 8 ft 28 kts 61°
2026-04-13 23:48 51.88816 -176.62887 9 ft 21 kts 67°
2026-04-13 23:48 51.88848 -176.62785 10 ft 0 kts 60°
2026-04-13 23:49 51.88849 -176.62784 10 ft 2 kts 57°
2026-04-13 23:49 51.88863 -176.62796 11 ft 5 kts 274°
2026-04-13 23:49 51.88861 -176.62808 10 ft 0 kts 245°
2026-04-13 23:50 51.88857 -176.62822 10 ft 12 kts 242°
2026-04-13 23:50 51.88747 -176.63138 8 ft 51 kts 240°
2026-04-13 23:50 51.88512 -176.63813 15 ft 87 kts 241°
2026-04-13 23:50 51.88154 -176.64818 176 ft 114 kts 239°
2026-04-13 23:51 51.87761 -176.65989 699 ft 123 kts 241°
2026-04-13 23:51 51.87398 -176.67157 1486 ft 108 kts 230°
2026-04-13 23:51 51.86758 -176.67596 2154 ft 112 kts 183°
2026-04-13 23:51 51.86022 -176.66741 2500 ft 162 kts 135°
2026-04-13 23:52 51.85700 -176.64823 2950 ft 188 kts 95°
2026-04-13 23:52 51.86090 -176.62909 3945 ft 179 kts 69°
2026-04-13 23:52 51.86674 -176.60910 4175 ft 214 kts 72°
2026-04-13 23:52 51.87299 -176.58558 4390 ft 240 kts 72°
2026-04-13 23:53 51.87985 -176.55974 4725 ft 259 kts 72°
2026-04-13 23:53 51.88834 -176.53310 5104 ft 274 kts 59°
2026-04-13 23:53 51.89930 -176.50741 5524 ft 279 kts 58°
2026-04-13 23:53 51.91032 -176.48132 5992 ft 281 kts 59°
2026-04-13 23:54 51.92085 -176.45461 6519 ft 280 kts 62°
2026-04-13 23:54 51.93055 -176.42778 7070 ft 278 kts 64°
2026-04-13 23:54 51.93978 -176.40038 7655 ft 276 kts 66°
2026-04-13 23:54 51.94865 -176.37321 8393 ft 266 kts 66°
2026-04-13 23:55 51.95703 -176.34735 9391 ft 252 kts 67°
2026-04-13 23:55 51.96405 -176.32227 10329 ft 238 kts 75°
2026-04-13 23:55 51.96961 -176.29762 11226 ft 229 kts 77°
2026-04-13 23:55 51.97545 -176.27393 12140 ft 223 kts 73°
2026-04-13 23:56 51.98137 -176.25097 13042 ft 218 kts 75°
2026-04-13 23:56 51.98694 -176.22806 13867 ft 218 kts 75°
2026-04-13 23:56 51.99254 -176.20498 14557 ft 222 kts 73°
2026-04-13 23:56 51.99840 -176.18170 15275 ft 224 kts 73°
2026-04-13 23:57 52.00423 -176.15812 16004 ft 226 kts 72°
2026-04-13 23:57 52.01006 -176.13426 16703 ft 228 kts 72°
2026-04-13 23:57 52.01598 -176.11026 17394 ft 231 kts 72°
2026-04-13 23:57 52.02196 -176.08593 18117 ft 232 kts 71°
2026-04-13 23:58 52.02793 -176.06160 18731 ft 232 kts 71°
2026-04-13 23:58 52.03391 -176.03730 19318 ft 233 kts 71°
2026-04-13 23:58 52.03986 -176.01297 19853 ft 235 kts 71°
2026-04-13 23:58 52.04589 -175.98826 20360 ft 236 kts 71°
2026-04-13 23:59 52.05199 -175.96333 20862 ft 238 kts 71°
2026-04-13 23:59 52.05810 -175.93831 21369 ft 239 kts 72°
2026-04-13 23:59 52.06425 -175.91303 21861 ft 242 kts 72°
2026-04-13 23:59 52.07047 -175.88748 22339 ft 245 kts 72°
2026-04-14 00:00 52.07679 -175.86152 22826 ft 248 kts 72°
2026-04-14 00:00 52.08315 -175.83532 23314 ft 251 kts 72°
2026-04-14 00:00 52.08958 -175.80883 23753 ft 253 kts 72°
2026-04-14 00:00 52.09606 -175.78214 24173 ft 254 kts 72°
2026-04-14 00:01 52.10256 -175.75527 24596 ft 255 kts 73°
2026-04-14 00:01 52.10908 -175.72825 25020 ft 257 kts 73°
2026-04-14 00:01 52.11564 -175.70108 25431 ft 258 kts 74°
2026-04-14 00:01 52.12221 -175.67384 25861 ft 260 kts 74°
2026-04-14 00:02 52.12875 -175.64667 26261 ft 261 kts 75°
2026-04-14 00:02 52.13539 -175.61906 26686 ft 262 kts 75°
2026-04-14 00:02 52.14207 -175.59127 27099 ft 264 kts 75°
2026-04-14 00:02 52.14877 -175.56335 27475 ft 266 kts 76°
2026-04-14 00:03 52.15552 -175.53521 27877 ft 267 kts 77°
2026-04-14 00:03 52.16227 -175.50685 28282 ft 269 kts 77°
2026-04-14 00:03 52.16910 -175.47833 28681 ft 271 kts 77°
2026-04-14 00:03 52.17595 -175.44967 29089 ft 272 kts 78°
2026-04-14 00:04 52.18280 -175.42085 29473 ft 274 kts 78°
2026-04-14 00:04 52.18973 -175.39178 29844 ft 276 kts 78°
2026-04-14 00:04 52.19668 -175.36261 30191 ft 277 kts 79°
2026-04-14 00:04 52.20365 -175.33318 30481 ft 279 kts 80°
2026-04-14 00:05 52.21071 -175.30354 30766 ft 281 kts 80°
2026-04-14 00:05 52.21773 -175.27421 31036 ft 282 kts 80°
2026-04-14 00:05 52.22484 -175.24427 31305 ft 283 kts 81°
2026-04-14 00:05 52.23198 -175.21414 31549 ft 285 kts 81°
2026-04-14 00:06 52.23916 -175.18395 31790 ft 286 kts 81°
2026-04-14 00:06 52.24634 -175.15360 32021 ft 287 kts 81°
2026-04-14 00:06 52.25358 -175.12300 32244 ft 289 kts 81°
2026-04-14 00:06 52.26081 -175.09236 32460 ft 290 kts 82°
2026-04-14 00:07 52.26807 -175.06158 32669 ft 291 kts 82°
2026-04-14 00:07 52.27532 -175.03066 32812 ft 293 kts 81°
2026-04-14 00:07 52.28269 -174.99933 32905 ft 299 kts 81°
2026-04-14 00:07 52.29023 -174.96736 32950 ft 305 kts 81°
2026-04-14 00:08 52.30579 -174.90088 32976 ft 320 kts 80°
2026-04-14 00:08 52.32190 -174.83189 32983 ft 333 kts 79°
2026-04-14 00:09 52.33867 -174.75986 32985 ft 343 kts 79°
2026-04-14 00:09 52.35580 -174.68604 32985 ft 349 kts 79°
2026-04-14 00:10 52.37308 -174.61126 32999 ft 354 kts 79°
2026-04-14 00:10 52.39053 -174.53550 32999 ft 357 kts 79°
2026-04-14 00:11 52.40808 -174.45901 33009 ft 360 kts 79°
2026-04-14 00:11 52.42557 -174.38249 33014 ft 363 kts 79°
2026-04-14 00:12 52.44329 -174.30474 33027 ft 365 kts 79°
2026-04-14 00:12 52.46107 -174.22642 33025 ft 366 kts 79°
2026-04-14 00:13 52.47881 -174.14794 33024 ft 367 kts 79°
2026-04-14 00:13 52.49655 -174.06923 33019 ft 368 kts 79°
2026-04-14 00:14 52.51421 -173.99048 32983 ft 367 kts 78°
2026-04-14 00:14 52.53172 -173.91227 32981 ft 367 kts 78°
2026-04-14 00:15 52.54931 -173.83329 32984 ft 367 kts 78°
2026-04-14 00:15 52.56682 -173.75439 32996 ft 368 kts 78°
2026-04-14 00:16 52.58422 -173.67568 32997 ft 368 kts 78°
2026-04-14 00:16 52.60166 -173.59650 32995 ft 368 kts 78°
2026-04-14 00:17 52.61910 -173.51702 33001 ft 368 kts 78°
2026-04-14 00:17 52.63641 -173.43769 32980 ft 367 kts 77°
2026-04-14 00:18 52.65364 -173.35864 33007 ft 366 kts 78°
2026-04-14 00:18 52.66790 -173.29298 33010 ft 366 kts 78°
2026-04-14 00:19 52.68497 -173.21398 33007 ft 366 kts 78°
2026-04-14 00:19 52.70474 -173.12217 33016 ft 366 kts 78°
2026-04-14 00:20 52.71895 -173.05591 33015 ft 366 kts 78°
2026-04-14 00:20 52.73578 -172.97712 33016 ft 367 kts 78°
2026-04-14 00:21 52.75278 -172.89720 33004 ft 369 kts 77°
2026-04-14 00:21 52.76971 -172.81738 33014 ft 367 kts 77°
2026-04-14 00:22 52.78654 -172.73776 33037 ft 368 kts 77°
2026-04-14 00:22 52.80336 -172.65785 33029 ft 368 kts 77°
2026-04-14 00:23 52.82009 -172.57797 33028 ft 367 kts 77°
2026-04-14 00:23 52.83665 -172.49862 33033 ft 367 kts 77°
2026-04-14 00:24 52.85321 -172.41893 33030 ft 366 kts 78°
2026-04-14 00:24 52.86971 -172.33942 33022 ft 365 kts 76°
2026-04-14 00:25 52.88606 -172.25997 33038 ft 364 kts 76°
2026-04-14 00:25 52.90238 -172.18052 33038 ft 364 kts 77°
2026-04-14 00:26 52.91854 -172.10153 33033 ft 364 kts 77°
2026-04-14 00:26 52.93477 -172.02187 33042 ft 365 kts 77°
2026-04-14 00:27 52.95098 -171.94204 33042 ft 365 kts 77°
2026-04-14 00:27 52.96708 -171.86231 33026 ft 364 kts 76°
2026-04-14 00:28 52.98305 -171.78317 33049 ft 364 kts 76°
2026-04-14 00:28 52.99899 -171.70351 33048 ft 364 kts 76°
2026-04-14 00:29 53.01491 -171.62375 33056 ft 364 kts 76°
2026-04-14 00:29 53.03081 -171.54379 33056 ft 364 kts 76°
2026-04-14 00:30 53.04663 -171.46396 33056 ft 364 kts 76°
2026-04-14 00:30 53.06239 -171.38404 33067 ft 363 kts 76°
2026-04-14 00:31 53.07793 -171.30477 33047 ft 362 kts 75°
2026-04-14 00:31 53.09358 -171.22499 33060 ft 362 kts 76°
2026-04-14 00:32 53.11680 -171.10560 33072 ft 361 kts 76°
2026-04-14 00:33 53.13213 -171.02642 33070 ft 361 kts 76°
2026-04-14 00:33 53.14746 -170.94686 33078 ft 361 kts 76°
2026-04-14 00:34 53.16275 -170.86725 33084 ft 361 kts 76°
2026-04-14 00:34 53.17801 -170.78743 33077 ft 361 kts 76°
2026-04-14 00:35 53.19319 -170.70775 33077 ft 360 kts 75°
2026-04-14 00:35 53.20827 -170.62808 33082 ft 360 kts 75°
2026-04-14 00:36 53.22330 -170.54852 33091 ft 359 kts 75°
2026-04-14 00:36 53.23827 -170.46888 33091 ft 359 kts 75°
2026-04-14 00:37 53.25308 -170.38976 33093 ft 359 kts 75°
2026-04-14 00:37 53.27046 -170.29647 33094 ft 360 kts 75°
2026-04-14 00:38 53.28277 -170.23015 33094 ft 360 kts 75°
2026-04-14 00:38 53.29753 -170.15034 33081 ft 359 kts 74°
2026-04-14 00:39 53.31218 -170.07063 33100 ft 358 kts 75°
2026-04-14 00:39 53.32680 -169.99085 33105 ft 358 kts 75°
2026-04-14 00:40 53.34129 -169.91147 33103 ft 359 kts 74°
2026-04-14 00:40 53.35580 -169.83149 33106 ft 359 kts 75°
2026-04-14 00:41 53.37027 -169.75148 33107 ft 359 kts 75°
2026-04-14 00:41 53.38540 -169.67172 33105 ft 359 kts 68°
2026-04-14 00:41 53.39669 -169.63439 33100 ft 358 kts 56°
2026-04-14 00:42 53.41122 -169.60084 33107 ft 354 kts 45°
2026-04-14 00:42 53.44644 -169.54433 33107 ft 349 kts 36°
2026-04-14 00:43 53.48308 -169.49154 33114 ft 348 kts 34°
2026-04-14 00:43 53.51800 -169.43451 33108 ft 354 kts 49°
2026-04-14 00:43 53.53136 -169.39954 33106 ft 357 kts 60°
2026-04-14 00:44 53.54122 -169.36130 33112 ft 358 kts 70°
2026-04-14 00:44 53.55652 -169.28164 33112 ft 358 kts 73°
2026-04-14 00:44 53.56429 -169.24159 32828 ft 366 kts 72°
2026-04-14 00:45 53.57258 -169.20046 32360 ft 376 kts 71°
2026-04-14 00:45 53.58120 -169.15833 31918 ft 385 kts 71°
2026-04-14 00:45 53.59006 -169.11531 31467 ft 391 kts 71°
2026-04-14 00:45 53.60018 -169.07317 31025 ft 395 kts 63°
2026-04-14 00:46 53.61222 -169.03143 30596 ft 398 kts 64°
2026-04-14 00:46 53.62316 -168.98835 30165 ft 402 kts 65°
2026-04-14 00:46 53.63492 -168.94534 29660 ft 405 kts 64°
2026-04-14 00:46 53.64627 -168.90171 29174 ft 407 kts 65°
2026-04-14 00:47 53.65794 -168.85798 28685 ft 409 kts 64°
2026-04-14 00:47 53.66945 -168.81429 28204 ft 407 kts 65°
2026-04-14 00:47 53.68094 -168.77063 27722 ft 405 kts 64°
2026-04-14 00:47 53.69235 -168.72737 27267 ft 403 kts 65°
2026-04-14 00:48 53.70365 -168.68421 26817 ft 401 kts 65°
2026-04-14 00:48 53.71491 -168.64128 26387 ft 399 kts 65°
2026-04-14 00:48 53.72609 -168.59850 25945 ft 397 kts 64°
2026-04-14 00:48 53.73724 -168.55580 25510 ft 396 kts 65°
2026-04-14 00:49 53.74829 -168.51338 25086 ft 394 kts 64°
2026-04-14 00:49 53.75928 -168.47112 24657 ft 392 kts 65°
2026-04-14 00:49 53.77006 -168.42953 24248 ft 390 kts 64°
2026-04-14 00:49 53.78095 -168.38761 23839 ft 388 kts 64°
2026-04-14 00:50 53.79175 -168.34578 23371 ft 387 kts 64°
2026-04-14 00:50 53.80248 -168.30421 22884 ft 385 kts 64°
2026-04-14 00:50 53.81315 -168.26279 22404 ft 382 kts 64°
2026-04-14 00:50 53.82371 -168.22171 21938 ft 378 kts 64°
2026-04-14 00:51 53.83416 -168.18102 21475 ft 375 kts 64°
2026-04-14 00:51 53.84452 -168.14059 21019 ft 372 kts 64°
2026-04-14 00:51 53.85475 -168.10059 20570 ft 369 kts 64°
2026-04-14 00:51 53.86486 -168.06099 20148 ft 365 kts 64°
2026-04-14 00:52 53.87487 -168.02170 19735 ft 361 kts 64°
2026-04-14 00:52 53.88479 -167.98273 19322 ft 358 kts 64°
2026-04-14 00:52 53.89457 -167.94418 18959 ft 355 kts 64°
2026-04-14 00:52 53.90427 -167.90591 18564 ft 352 kts 64°
2026-04-14 00:53 53.91392 -167.86788 18118 ft 349 kts 64°
2026-04-14 00:53 53.92343 -167.83011 17663 ft 347 kts 64°
2026-04-14 00:53 53.93280 -167.79309 17222 ft 345 kts 64°
2026-04-14 00:53 53.94218 -167.75582 16782 ft 343 kts 64°
2026-04-14 00:54 53.95150 -167.71868 16356 ft 341 kts 64°
2026-04-14 00:54 53.96078 -167.68174 15950 ft 339 kts 64°
2026-04-14 00:54 53.96999 -167.64500 15562 ft 336 kts 64°
2026-04-14 00:54 53.97907 -167.60866 15219 ft 333 kts 64°
2026-04-14 00:55 53.98810 -167.57253 14879 ft 330 kts 64°
2026-04-14 00:55 53.99702 -167.53674 14544 ft 329 kts 65°
2026-04-14 00:55 54.00596 -167.50088 14216 ft 330 kts 65°
2026-04-14 00:55 54.01491 -167.46482 13884 ft 332 kts 65°
2026-04-14 00:56 54.02390 -167.42851 13516 ft 334 kts 65°
2026-04-14 00:56 54.03515 -167.39437 13144 ft 329 kts 52°
2026-04-14 00:56 54.04815 -167.36231 12779 ft 329 kts 52°
2026-04-14 00:56 54.06092 -167.33005 12414 ft 328 kts 53°
2026-04-14 00:57 54.07348 -167.29788 12046 ft 325 kts 53°
2026-04-14 00:57 54.08583 -167.26584 11708 ft 320 kts 53°
2026-04-14 00:57 54.09794 -167.23435 11356 ft 315 kts 53°
2026-04-14 00:57 54.10979 -167.20328 11017 ft 310 kts 53°
2026-04-14 00:58 54.12094 -167.17200 10667 ft 308 kts 59°
2026-04-14 00:58 54.12966 -167.13895 10337 ft 307 kts 64°
2026-04-14 00:58 54.13762 -167.10526 9996 ft 306 kts 65°
2026-04-14 00:58 54.14531 -167.07149 9621 ft 305 kts 66°
2026-04-14 00:59 54.15299 -167.03783 9246 ft 303 kts 66°
2026-04-14 00:59 54.16072 -167.00454 8881 ft 300 kts 65°
2026-04-14 00:59 54.16845 -166.97171 8526 ft 297 kts 65°
2026-04-14 00:59 54.17663 -166.93941 8171 ft 295 kts 63°
2026-04-14 01:00 54.18497 -166.90793 7819 ft 294 kts 63°
2026-04-14 01:00 54.19363 -166.87584 7464 ft 293 kts 63°
2026-04-14 01:00 54.20212 -166.84477 7121 ft 292 kts 63°
2026-04-14 01:00 54.21060 -166.81349 6778 ft 289 kts 63°
2026-04-14 01:01 54.21894 -166.78239 6424 ft 286 kts 63°
2026-04-14 01:01 54.22723 -166.75158 6053 ft 284 kts 64°
2026-04-14 01:01 54.23537 -166.72086 5700 ft 282 kts 65°
2026-04-14 01:01 54.24319 -166.69010 5335 ft 281 kts 66°
2026-04-14 01:02 54.25088 -166.65943 4980 ft 280 kts 66°
2026-04-14 01:02 54.25815 -166.62885 4603 ft 275 kts 75°
2026-04-14 01:02 54.25909 -166.59690 4217 ft 266 kts 102°
2026-04-14 01:02 54.25181 -166.56885 3853 ft 253 kts 131°
2026-04-14 01:03 54.23862 -166.55118 3497 ft 240 kts 160°
2026-04-14 01:03 54.22267 -166.54725 3122 ft 229 kts 188°
2026-04-14 01:03 54.20730 -166.55240 2786 ft 222 kts 195°
2026-04-14 01:03 54.19271 -166.55886 2616 ft 210 kts 196°
2026-04-14 01:04 54.17914 -166.56531 2538 ft 196 kts 197°
2026-04-14 01:04 54.16631 -166.57153 2505 ft 188 kts 197°
2026-04-14 01:04 54.15376 -166.57662 2489 ft 184 kts 192°
2026-04-14 01:04 54.14118 -166.58027 2479 ft 183 kts 191°
2026-04-14 01:05 54.12871 -166.58448 2484 ft 182 kts 193°
2026-04-14 01:05 54.11632 -166.58890 2482 ft 182 kts 192°
2026-04-14 01:05 54.10385 -166.59304 2480 ft 182 kts 191°
2026-04-14 01:05 54.09123 -166.59292 2481 ft 182 kts 174°
2026-04-14 01:06 54.07901 -166.58949 2483 ft 179 kts 172°
2026-04-14 01:06 54.06684 -166.58619 2482 ft 175 kts 175°
2026-04-14 01:06 54.05482 -166.58400 2486 ft 173 kts 176°
2026-04-14 01:06 54.04289 -166.58158 2486 ft 172 kts 174°
2026-04-14 01:07 54.03506 -166.57978 2488 ft 171 kts 174°
2026-04-14 01:07 54.02330 -166.57714 2487 ft 170 kts 175°
2026-04-14 01:07 54.01158 -166.57472 2488 ft 169 kts 175°
2026-04-14 01:07 53.99992 -166.57224 2466 ft 170 kts 174°
2026-04-14 01:08 53.98403 -166.56882 2208 ft 167 kts 174°
2026-04-14 01:08 53.97397 -166.56656 2087 ft 127 kts 174°
2026-04-14 01:08 53.96848 -166.56537 2048 ft 110 kts 175°
2026-04-14 01:08 53.96131 -166.56377 1928 ft 102 kts 173°
2026-04-14 01:09 53.95465 -166.56204 1902 ft 96 kts 171°
2026-04-14 01:09 53.94806 -166.55981 1776 ft 98 kts 171°
2026-04-14 01:09 53.94115 -166.55827 1635 ft 103 kts 175°
2026-04-14 01:09 53.93387 -166.55741 1463 ft 106 kts 177°
2026-04-14 01:10 53.92627 -166.55733 1191 ft 112 kts 185°
2026-04-14 01:10 53.91862 -166.56040 833 ft 115 kts 191°
2026-04-14 01:10 53.91074 -166.55946 424 ft 114 kts 157°
2026-04-14 01:10 53.90391 -166.55282 53 ft 106 kts 143°
2026-04-14 01:11 53.89908 -166.54534 7 ft 80 kts 136°
2026-04-14 01:11 53.89676 -166.54157 8 ft 18 kts 136°
2026-04-14 01:11 53.89604 -166.54067 9 ft 12 kts 172°
2026-04-14 01:11 53.89542 -166.54109 9 ft 10 kts 229°
2026-04-14 01:12 53.89532 -166.54216 10 ft 9 kts 301°
2026-04-14 01:12 53.89561 -166.54266 10 ft 0 kts 324°